TITAN 3C TRANSTAGE DEB, 39297

Orbit data source: Space-Track

TITAN 3C TRANSTAGE DEB, 39297 is space debris in GEO originally from a launch on Thu, 26 Sep 1968 UTC launched from the Air Force Eastern Test Range (AFETR). Debris objects in space refer to the collection of defunct objects orbiting the Earth. Examples of debris include non-operational satellites, rocket bodies, and fragments generated from explosions, collisions, or faulty payload assembly.

Not visible in the next 10 days
Identifier
39297, 1968-081AH
Orbit
GEO
Country
Flag of USUS
Related business
Manufacturer
Unknown
Mission
Spacecraft
Bus & Motor
Unknown
Mass
Unknown
Launch date (UTC)
1968-09-26 (57 years ago)
Launch vehicle
Unknown
Launch site
Air Force Eastern Test Range (AFETR)
Object type
Payload
Rocket body
Debris
Shape & HBR
Unknown
Radar Cross Section
RCS unknown

Expand to show TLE details & history
Last TLE update: 19 hours ago

TLE from 19 hours ago
0 TITAN 3C TRANSTAGE DEB
1 39297U 68081AH  25259.04644265 -.00000143  00000-0  00000-0 0  9996
2 39297   1.3915   3.8911 0188380 323.8595  35.2542  1.00366030 13729
Epoch: 2025-09-16T01:06Z
TLE epoch observation values (Epoch: 2025-09-16T01:06:52.644Z)
Latitude
Longitude
-7.68901°
Altitude
35,113.191 km
Speed
3.123 km/s
True Right ascension
00h 17m 05s
True Declination
0° 00' 00"
Sunlit
Object was in daylight at epoch
Visualization orbit readout
Latitude
Unknown
Longitude
Unknown
Altitude
Unknown
Speed
Unknown
Apparent Right ascension
Unknown
Apparent Declination
Unknown
Sunlit
N/A
Visualization observer readout
Local Sidereal Time
12:25:20
Azimuth
Unknown
Elevation
Unknown
Doppler factor
Unknown
Orbital elements
Apogee altitude
36,555.088 km
Perigee altitude
34,967.444 km
Semi-major axis
42,139.403 km
Eccentricity
0.01884
Inclination
1.3915°
RAAN
3.8911°
Arg. of periapsis
323.8595°
True anomaly
36.5245°
Mean anomaly
35.2542°
Eccentric anomaly
35.88689°
Mean motion
0.25091 °/min
Orbital period
1,434.8 mins
BSTAR
0
Loading maneuver chart data...
Computing Atmospheric mass density...

Documentation

Showing up to 5 results
|